This is the latest recevied weather packets stored in our database for station/object VE3CGR-6. If no packets are shown the sender has not sent any weather packets the latest 10 day(s).
| Time | Temp. | Humidity | Pressure | Rain* | Wind** | Luminosity | Snow |
|---|---|---|---|---|---|---|---|
| 1788392417 | 20.56° C | 93% | 1012.5 hPa | 0.51 mm | - | - | - |
| 1788391817 | 20.56° C | 92% | 1012.5 hPa | 0.51 mm | - | - | - |
| 1788391217 | 20.56° C | 93% | 1012.7 hPa | 0.25 mm | - | - | - |
| 1788390617 | 20.56° C | 93% | 1012.8 hPa | 0 mm | - | - | - |
| 1788390017 | 20° C | 92% | 1013 hPa | 0 mm | - | - | - |
| 1788389417 | 20° C | 92% | 1013.2 hPa | 0.25 mm | - | - | - |
| 1788388817 | 20.56° C | 92% | 1013.1 hPa | 0.51 mm | - | - | - |
| 1788388217 | 20.56° C | 92% | 1012.3 hPa | 1.52 mm | - | - | - |
| 1788387617 | 20.56° C | 92% | 1012.7 hPa | 1.52 mm | - | - | - |
| 1788387017 | 20.56° C | 92% | 1013.2 hPa | 1.52 mm | - | - | - |
| 1788386417 | 20.56° C | 92% | 1012.9 hPa | 1.78 mm | - | - | - |
| 1788385817 | 20.56° C | 92% | 1013 hPa | 1.78 mm | - | - | - |
| 1788385217 | 20.56° C | 92% | 1012.9 hPa | 1.52 mm | - | - | - |
| 1788384617 | 20.56° C | 92% | 1012.7 hPa | 1.02 mm | - | - | - |
| 1788384017 | 20.56° C | 92% | 1012.4 hPa | 1.52 mm | - | - | - |
| 1788383417 | 20.56° C | 92% | 1012.4 hPa | 5.33 mm | - | - | - |
| 1788382817 | 20.56° C | 92% | 1013.6 hPa | 5.84 mm | - | - | - |
| 1788382217 | 20.56° C | 92% | 1013.4 hPa | 6.35 mm | - | - | - |
| 1788381617 | 20.56° C | 92% | 1012.7 hPa | 6.6 mm | - | - | - |
| 1788381017 | 20.56° C | 91% | 1013.8 hPa | 6.35 mm | - | - | - |
| 1788380417 | 20.56° C | 91% | 1013.6 hPa | 6.1 mm | - | - | - |
| 1788379817 | 21.11° C | 92% | 1015.3 hPa | 1.78 mm | - | - | - |
| 1788379220 | 21.11° C | 91% | 1014.2 hPa | 1.52 mm | - | - | - |
| 1788378617 | 21.11° C | 91% | 1013.7 hPa | 1.52 mm | - | - | - |
| 1788378017 | 21.11° C | 91% | 1013.4 hPa | 2.29 mm | - | - | - |
* Rain latest hour (hover to see other rain measurements)
** Current wind speed in m/s (hover to see current wind gust speed)